Date,TemperatureHighF,TemperatureAvgF,TemperatureLowF,DewpointHighF,DewpointAvgF,DewpointLowF,HumidityHigh,HumidityAvg,HumidityLow,PressureMaxIn,PressureMinIn,WindSpeedMaxMPH,WindSpeedAvgMPH,GustSpeedMaxMPH,PrecipitationSumIn
2013-5-1,85.3,73.8,63.4,70.0,66.4,61.0,94,79,54,30.69,30.57,11,1,0,0.00
2013-5-2,72.1,61.1,46.8,66.0,55.2,40.0,92,81,69,31.07,30.68,15,4,0,0.00
2013-5-3,66.2,53.1,42.9,40.0,35.1,30.0,78,55,26,31.08,30.89,16,5,0,0.00
2013-5-4,82.3,61.0,39.2,46.0,38.4,34.0,80,49,20,30.91,30.66,14,3,0,0.00
2013-5-5,71.1,57.9,41.2,47.0,43.1,36.0,86,60,40,30.94,30.78,9,2,0,0.00
2013-5-6,76.7,61.5,43.5,56.0,49.1,40.0,91,66,44,30.94,30.78,3,0,0,0.00
2013-5-7,85.4,68.7,50.0,58.0,54.5,47.0,93,64,36,30.88,30.74,9,2,0,0.00
2013-5-8,86.3,72.7,60.9,66.0,61.5,57.0,92,70,43,30.83,30.70,13,4,0,0.00
2013-5-9,80.0,72.2,67.0,71.0,67.8,63.0,94,86,74,30.76,30.59,12,3,0,0.20
2013-5-10,81.4,72.4,64.4,70.0,66.9,62.0,94,84,60,30.85,30.50,19,2,0,1.32
2013-5-11,81.5,70.9,60.5,69.0,61.8,54.0,94,75,45,30.90,30.72,9,2,0,0.04
2013-5-12,79.0,67.5,56.4,61.0,55.3,50.0,90,67,45,31.01,30.89,6,2,0,0.00
2013-5-13,82.2,68.4,49.9,61.0,54.7,47.0,91,64,42,31.08,30.95,10,2,0,0.00
2013-5-14,83.4,71.0,60.3,68.0,63.2,56.0,94,78,52,31.02,30.83,12,4,0,0.00
2013-5-15,79.1,70.9,66.4,72.0,67.3,64.0,94,88,77,30.91,30.66,14,5,0,0.12
2013-5-16,84.2,74.4,64.4,73.0,68.6,62.0,93,82,68,30.75,30.54,20,6,0,0.05
2013-5-17,88.9,78.7,71.0,77.0,72.1,68.0,92,81,66,30.70,30.59,15,6,0,0.00
2013-5-18,91.4,80.3,72.9,76.0,71.8,69.0,92,76,56,30.70,30.61,16,6,0,0.00
2013-5-19,90.3,79.9,72.6,74.0,71.3,70.0,91,76,56,30.65,30.52,15,7,0,0.00
2013-5-20,90.1,80.6,73.8,75.0,72.4,70.0,91,77,59,30.64,30.48,15,6,0,0.00
2013-5-21,89.6,80.3,68.4,74.0,72.1,65.0,91,77,60,30.62,30.43,16,6,0,0.67
2013-5-22,86.6,73.2,65.6,76.0,69.5,64.0,94,88,71,30.69,30.58,4,1,0,0.46
2013-5-23,88.8,80.2,73.2,77.0,73.6,71.0,93,81,65,30.80,30.65,12,3,0,0.00
2013-5-24,87.9,79.0,73.8,76.0,73.2,71.0,94,83,64,30.89,30.76,11,2,0,0.01
2013-5-25,82.3,76.9,72.3,74.0,71.7,70.0,93,84,72,30.91,30.80,11,2,0,0.00
2013-5-26,88.3,79.1,73.2,74.0,71.3,68.0,93,78,58,30.87,30.74,13,4,0,0.01
2013-5-27,89.0,78.7,71.0,74.0,70.9,69.0,94,78,58,30.80,30.63,11,5,0,0.00
2013-5-28,89.3,78.4,71.9,75.0,71.1,69.0,92,79,57,30.70,30.58,17,5,0,0.00
2013-5-29,86.2,78.8,73.9,75.0,72.3,71.0,90,81,66,30.66,30.53,16,5,0,0.00
2013-5-30,89.8,80.7,74.9,77.0,73.9,72.0,92,80,64,30.62,30.52,17,6,0,0.02
2013-5-31,91.8,82.8,76.8,77.0,74.6,73.0,92,77,58,30.64,30.52,16,7,0,0.00